#timestamp,LO_Frequency,Hit,StdDev 
1638500415.3,286047002.8,N
1638500435.1,286047002.2,N
1638500455.9,286047002.8,N
1638500475.7,286047000.3,N
1638500495.6,286046998.1,N
1638500515.4,286046999.3,N
1638500535.2,286046999.1,N
1638500555.1,286046998.1,N
1638500556.0,286046998.1,N
1638500575.8,286046999.0,N
1638500595.6,286046998.7,N
1638500615.5,286047000.8,N
1638500635.3,286047000.7,N
1638500655.2,286046998.2,N
1638500675.9,286047000.0,N
1638500695.7,286046999.9,N
1638500715.6,286047002.6,N
1638500735.4,286047000.2,N
1638500755.2,286047002.2,N
1638500775.1,286047001.4,N
1638500776.0,286047001.4,N
1638500795.8,286047002.3,N
1638500815.7,286047000.2,N
1638500835.5,286046999.9,N
1638500855.3,286047002.6,N
1638500875.2,286047000.5,N
1638500895.0,286046999.9,N
1638500895.9,286046999.9,N
1638500915.7,286047000.4,N
1638500935.6,286046998.6,N
1638500955.4,286047000.4,N
1638500975.3,286047000.4,N
1638500995.1,286047000.6,N
1638501015.8,286046999.8,N
1638501035.7,286047000.6,N
1638501055.5,286046998.1,N
1638501075.4,286047001.2,N
1638501095.2,286046998.3,N
1638501115.0,286047000.7,N
1638501115.9,286047000.7,N
1638501135.8,286046998.1,N
1638501155.6,286047000.4,N
1638501175.4,286047000.1,N
1638501195.3,286047000.5,N
1638501215.1,286047001.8,N
1638501235.9,286047001.4,N
1638501255.7,286047001.7,N
1638501275.5,286047004.4,Y
1638501295.4,286047002.9,P
1638501315.2,286047003.4,N
1638501335.1,286047004.2,P
1638501336.0,286047004.2,Y
1638501355.8,286047000.9,P
1638501375.6,286046998.3,N
1638501395.5,286046999.2,N
1638501415.3,286047001.2,N
1638501435.2,286046999.0,N
1638501455.9,286046998.8,N
1638501475.7,286046997.8,N
1638501495.6,286046997.8,N
1638501515.4,286046997.7,N
1638501535.2,286046997.7,N
1638501555.1,286046996.1,N
1638501556.0,286046996.1,N
1638501575.8,286046996.4,N
1638501595.7,286046995.0,N
1638501615.5,286046997.2,N
1638501635.3,286046997.9,N
1638501655.2,286046995.4,N
1638501675.0,286046995.0,N
1638501675.9,286046995.0,N
1638501695.7,286046997.4,N
1638501715.6,286046997.7,N
1638501735.4,286046995.0,N
1638501755.3,286046995.4,N
1638501775.1,286046995.1,N
1638501776.0,286046995.1,N
1638501795.8,286046997.3,N
1638501815.7,286046997.7,N
1638501835.5,286046997.0,N
1638501855.3,286046999.5,N
1638501875.2,286046996.5,N
1638501895.0,286046999.5,N
1638501895.9,286046999.5,N
1638501915.8,286046999.1,N
1638501935.6,286046996.7,N
1638501955.4,286046996.9,N
1638501975.3,286046999.1,N
1638501995.1,286046997.1,N
1638502015.9,286046999.2,N
1638502035.7,286046997.4,N
1638502055.5,286046997.9,N
1638502075.4,286046997.6,N
1638502095.2,286046996.8,N
1638502115.1,286046996.5,N
1638502116.0,286046996.5,N
1638502135.8,286046998.7,N
1638502155.7,286046999.3,N
1638502175.5,286046999.6,N
1638502195.3,286046999.1,N
1638502215.2,286046998.4,N
1638502235.0,286046998.7,N
1638502235.9,286046998.7,N
1638502255.8,286046996.7,N
1638502275.6,286046998.7,N
1638502295.5,286046998.9,N
1638502315.3,286046998.5,N
1638502335.1,286046998.8,N
1638502355.9,286046999.6,N
1638502375.7,286046994.9,Y
1638502395.5,286046998.4,P
1638502415.4,286046999.0,P
1638502435.2,286046999.0,P
1638502455.1,286046999.0,N
1638502456.0,286046999.0,N
1638502475.8,286046999.4,N
1638502495.6,286046999.0,N
1638502515.5,286046997.3,Y
1638502535.3,286046999.2,P
1638502555.2,286047000.7,P
1638502575.9,286046998.6,N
1638502595.7,286047000.4,N
1638502615.6,286047002.8,Y
1638502635.4,286047002.0,P
1638502655.3,286047001.7,N
1638502675.1,286047003.7,P
1638502676.0,286047003.7,N
1638502695.8,286047003.1,N
1638502715.7,286047004.1,N
1638502735.8,286047003.0,N
1638502755.6,286047003.2,N
1638502775.5,286047001.8,N
1638502795.3,286047001.7,N
1638502815.2,286047001.4,N
1638502835.9,286047001.7,N
1638502855.7,286047004.3,Y
1638502875.6,286047001.0,P
1638502895.4,286047001.0,N
1638502915.2,286046998.6,N
1638502935.1,286047000.3,N
1638502936.0,286047000.3,N
1638502955.8,286047000.8,N
1638502975.7,286047000.1,N
1638502995.5,286047002.0,N
1638503015.3,286047002.4,N
1638503035.2,286047000.2,N
1638503055.0,286047000.1,N
1638503055.9,286047000.1,N
1638503075.7,286047000.1,N
1638503095.6,286047002.7,N
1638503115.4,286047002.7,N
1638503135.3,286047002.6,N
1638503155.1,286047000.4,N
1638503175.8,286047002.7,N
1638503195.7,286047002.8,N
1638503215.5,286046999.8,N
1638503235.4,286047000.4,N
1638503255.2,286046998.4,N
1638503275.0,286046998.7,N
1638503275.9,286046998.7,N
1638503295.8,286046999.0,N
1638503315.6,286047001.1,N
1638503335.4,286047001.0,N
1638503355.3,286047000.4,N
1638503375.1,286046999.3,N
1638503395.9,286046999.2,N
1638503415.7,286046999.4,N
1638503435.5,286047000.8,N
1638503455.4,286047001.1,N
1638503475.2,286047001.0,N
1638503495.1,286047001.0,N
1638503496.0,286047001.0,N
1638503515.8,286047000.3,N
1638503535.6,286046999.9,N
1638503555.5,286046999.7,N
1638503575.3,286047000.2,N
1638503595.1,286047002.6,N
1638503615.9,286047000.0,N
1638503635.7,286047000.0,N
1638503655.6,286047000.3,N
1638503675.4,286047001.2,N
1638503695.2,286046998.7,N
1638503715.1,286046999.1,N
1638503716.0,286046999.1,N
1638503735.8,286046996.5,Y
1638503755.7,286046999.1,P
1638503775.5,286046999.1,N
1638503795.3,286046998.3,P
1638503815.2,286046998.9,N
1638503835.0,286046998.3,N
1638503835.9,286046998.3,N
1638503855.8,286046998.2,N
1638503875.6,286046999.3,N
1638503895.4,286047001.2,N
1638503915.3,286046998.1,N
1638503935.1,286047000.0,N
1638503955.8,286047000.6,N
1638503975.7,286046999.9,N
1638503995.5,286047002.5,N
